Location: Bailleul
(50.3375°N, 2.8513°E)
Time: 04:43:38
(UTC+00:00)

Cosmos 1606 - Pass Details

Date: 19 April 2021
Orbit: 502 x 526 km, 82.5° (Epoch: 09 May)

Event Time Altitude Azimuth Distance (km) Brightness Sun altitude
Exits shadow 22:53:40 37° 344° (NNW) 795 4.1 -27.0°
Drops below altitude 10° 22:56:11 10° 3° (N) 1,726 6.2 -27.1°
Sets 22:58:20 0° 8° (N) 2,615 7.3 -27.2°
